(273334) = 2006 TK70

Discovered at Palomar on 2006-10-11 by NEAT.

Orbit

Orbit type: Main Belt

Note: WebGL enabled browser required.

epoch2023-09-13.0
epoch JD2460200.5
perihelion date2022-12-04.57645
perihelion JD2459918.07645
argument of perihelion (°)226.24528
ascending node (°)92.98420
inclination (°)7.29473
eccentricity0.1642123
perihelion distance (AU)1.8578046
Tisserand w.r.t. Jupiter3.6
ΔV w.r.t. Earth (km/sec)8.7
semimajor axis (AU)2.2228188
mean anomaly (°)83.99408
mean daily motion (°/day)0.29740470
aphelion distance (AU)2.588
period (years)3.31
P-vector [x]0.75149276
P-vector [y]-0.56294191
P-vector [z]-0.34402766
Q-vector [x]0.64744118
Q-vector [y]0.72949968
Q-vector [z]0.22056777
absolute magnitude17.57
phase slope0.15
uncertainty0
referenceMPEC 2024-A26
observations used336
oppositions14
arc length (days)7345
first opposition used2003
last opposition used2024
residual rms (arc-secs)0.76
perturbers coarse indicatorM-v
perturbers precise indicator003Ek
first observation date used2003-11-23.0
last observation date used2024-01-02.0
computer nameMPCLINUX
JD of orbit computation2456670.632659
perihelion JD uncertainty (days)1.0848E-04
argument of perihelion uncertainty (°)6.0917E-05
ascending node uncertainty (°)5.4657E-05
inclination uncertainty (°)7.4894E-06
eccentricity uncertainty 8.5014E-08
perihelion distance uncertainty (AU)2.1709E-07
Minimum Orbit Intersection Distances (in AU)
for orbit epoch: 2458200.5, reference: MPO433769
Mercury1.43072
Venus1.13003
Earth0.851612
Mars0.468835
Jupiter2.68579
Saturn6.57256
Uranus15.6747
Neptune27.467

Observations

343 total observations over interval: 2003 11 23.40973 – 2024 01 02.325244
These data are available for download (format description).

Date (UT) J2000 RA J2000 Dec Magn Location Ref
2003 11 23.40973 05 07 01.00 +17 56 58.7 21.2 V 691 – Steward Observatory, Kitt Peak-Spacewatch MPS 242175
2003 11 23.43810 05 06 59.02 +17 57 00.5 21.4 V 691 – Steward Observatory, Kitt Peak-Spacewatch MPS 242175
2003 11 23.46581 05 06 57.09 +17 57 02.4 21.6 V 691 – Steward Observatory, Kitt Peak-Spacewatch MPS 242175
2006 09 11.39330 02 07 06.84 -01 01 34.2 20.7   705 – Apache Point MPS 212025
2006 09 11.39413 02 07 06.82 -01 01 34.5 20.0 V 705 – Apache Point MPS 212025
2006 09 26.38634 02 00 05.86 -02 24 33.2 19.5 V 703 – Catalina Sky Survey MPS 185651
2006 09 26.39513 02 00 05.43 -02 24 38.9 19.9 V 703 – Catalina Sky Survey MPS 185651
2006 09 26.40389 02 00 05.11 -02 24 42.4 19.8 V 703 – Catalina Sky Survey MPS 185651
2006 09 26.41267 02 00 04.75 -02 24 43.9 20.0 V 703 – Catalina Sky Survey MPS 185651
2006 10 11.34538 01 46 46.21 -03 41 19.4 19.1 R 644 – Palomar Mountain/NEAT MPS 183171
2006 10 11.36628 01 46 44.85 -03 41 24.7 19.2 R 644 – Palomar Mountain/NEAT MPS 183171
2006 10 11.38723 01 46 43.54 -03 41 30.2 19.0 R 644 – Palomar Mountain/NEAT MPS 183171
2006 10 16.26648 01 41 42.39 -03 59 47.6 19.8 V 703 – Catalina Sky Survey MPS 183171
2006 10 16.27426 01 41 41.85 -03 59 49.1 19.8 V 703 – Catalina Sky Survey MPS 183171
2006 10 16.28206 01 41 41.38 -03 59 50.2 20.2 V 703 – Catalina Sky Survey MPS 183171
2006 10 16.28987 01 41 40.84 -03 59 51.1 20.1 V 703 – Catalina Sky Survey MPS 183171
2006 10 22.30834 01 35 28.60 -04 15 28.3 20.0 V 703 – Catalina Sky Survey MPS 185651
2006 10 22.31479 01 35 28.17 -04 15 29.1 19.6 V 703 – Catalina Sky Survey MPS 185651
2006 10 22.32126 01 35 27.81 -04 15 29.4 19.3 V 703 – Catalina Sky Survey MPS 185651
2006 10 22.32774 01 35 27.34 -04 15 29.3 19.5 V 703 – Catalina Sky Survey MPS 185651
2006 10 22.37713 01 35 24.32 -04 15 36.0 20.2 R 644 – Palomar Mountain/NEAT MPS 185651
2006 10 22.39772 01 35 23.01 -04 15 38.2 19.8 R 644 – Palomar Mountain/NEAT MPS 185651
2006 10 22.41835 01 35 21.74 -04 15 40.8 19.3 R 644 – Palomar Mountain/NEAT MPS 185651
2006 10 23.34454 01 34 25.94 -04 17 17.5 19.1 R 644 – Palomar Mountain/NEAT MPS 185651
2006 10 23.36558 01 34 24.62 -04 17 19.5 19.6 R 644 – Palomar Mountain/NEAT MPS 185651
2006 10 23.38666 01 34 23.29 -04 17 21.5 19.9 R 644 – Palomar Mountain/NEAT MPS 185651
2006 10 28.20412 01 29 43.72 -04 22 10.7 20.3 V 703 – Catalina Sky Survey MPS 185651
2006 10 28.21061 01 29 43.22 -04 22 09.6 20.5 V 703 – Catalina Sky Survey MPS 185651
2006 10 28.21708 01 29 42.90 -04 22 11.1 20.1 V 703 – Catalina Sky Survey MPS 185651
2006 10 28.22357 01 29 42.57 -04 22 12.1 19.6 V 703 – Catalina Sky Survey MPS 185651
2008 02 11.24534 10 22 29.78 +20 19 43.5 20.1 V G96 – Mt. Lemmon Survey MPS 242175
2008 02 11.25012 10 22 29.49 +20 19 46.3 20.8 V G96 – Mt. Lemmon Survey MPS 242175
2008 02 11.25491 10 22 29.20 +20 19 47.9 20.2 V G96 – Mt. Lemmon Survey MPS 242175
2008 02 11.25969 10 22 28.88 +20 19 49.8 21.3 V G96 – Mt. Lemmon Survey MPS 242175
2008 03 02.39135 10 01 37.09 +22 38 04.1 21.0 V G96 – Mt. Lemmon Survey MPS 242175
2008 03 02.39796 10 01 36.73 +22 38 05.8 20.9 V G96 – Mt. Lemmon Survey MPS 242175
2008 03 02.40463 10 01 36.30 +22 38 08.0 20.8 V G96 – Mt. Lemmon Survey MPS 242175
2008 03 02.41115 10 01 35.90 +22 38 09.7 20.7 V G96 – Mt. Lemmon Survey MPS 242175
2008 03 06.20628 09 57 55.80 +22 56 29.6 21.4 V G96 – Mt. Lemmon Survey MPS 242175
2008 03 06.21177 09 57 55.51 +22 56 31.7 21.4 V G96 – Mt. Lemmon Survey MPS 242175
2008 03 06.21735 09 57 55.15 +22 56 33.0 21.2 V G96 – Mt. Lemmon Survey MPS 242175
2008 03 06.22295 09 57 54.86 +22 56 34.1 21.3 V G96 – Mt. Lemmon Survey MPS 242175
2009 07 23.66193 20 34 14.55 -26 47 41.2 19.1 V E12 – Siding Spring Survey MPS 289842
2009 07 23.66946 20 34 14.12 -26 47 45.0 18.8 V E12 – Siding Spring Survey MPS 289842
2009 07 23.67696 20 34 13.69 -26 47 49.5 18.6 V E12 – Siding Spring Survey MPS 289842
2009 07 23.68448 20 34 13.22 -26 47 54.0 19.1 V E12 – Siding Spring Survey MPS 289842
2009 08 18.45095 20 13 23.16 -29 51 16.2 19.3 V E12 – Siding Spring Survey MPS 291769
2009 08 18.45743 20 13 22.87 -29 51 18.9 19.5 V E12 – Siding Spring Survey MPS 291769
2009 08 18.47038 20 13 22.36 -29 51 21.5 19.6 V E12 – Siding Spring Survey MPS 291769
2011 01 13.21877 08 02 29.94 +25 07 22.5 20.7 V G96 – Mt. Lemmon Survey MPS 365628
2011 01 13.22569 08 02 29.47 +25 07 25.3 20.7 V G96 – Mt. Lemmon Survey MPS 365628
2011 01 13.23272 08 02 28.96 +25 07 27.7 20.5 V G96 – Mt. Lemmon Survey MPS 365628
2011 01 13.23971 08 02 28.42 +25 07 30.4 20.9 V G96 – Mt. Lemmon Survey MPS 365628
2011 01 30.30356 07 42 52.912 +26 36 18.48 21.1 w F51 – Pan-STARRS 1, Haleakala MPS 378656
2011 01 30.31883 07 42 51.901 +26 36 22.48 21.1 w F51 – Pan-STARRS 1, Haleakala MPS 378656
2011 01 30.33317 07 42 50.951 +26 36 26.12 21.2 w F51 – Pan-STARRS 1, Haleakala MPS 378656
2012 04 24.38346 15 56 20.65 -10 58 54.4 20.1 V 691 – Steward Observatory, Kitt Peak-Spacewatch MPS 422752
2012 04 24.40201 15 56 19.81 -10 58 52.4 20.0 V 691 – Steward Observatory, Kitt Peak-Spacewatch MPS 422752
2012 04 24.42402 15 56 18.85 -10 58 50.0 19.9 V 691 – Steward Observatory, Kitt Peak-Spacewatch MPS 422752
2012 04 28.38801 15 53 21.19 -10 51 29.8 20.4 V 691 – Steward Observatory, Kitt Peak-Spacewatch MPS 423631
2012 04 28.40650 15 53 20.24 -10 51 27.6 20.6 V 691 – Steward Observatory, Kitt Peak-Spacewatch MPS 423631
2012 04 28.42501 15 53 19.30 -10 51 25.8 20.5 V 691 – Steward Observatory, Kitt Peak-Spacewatch MPS 423631
2012 05 01.44455 15 50 46.928 -10 46 07.30 20.0 i F51 – Pan-STARRS 1, Haleakala MPS 423631
2012 05 01.45550 15 50 46.321 -10 46 06.32 19.9 i F51 – Pan-STARRS 1, Haleakala MPS 423631
2012 05 02.33916 15 49 59.13 -10 44 38.5 21.0 V 691 – Steward Observatory, Kitt Peak-Spacewatch MPS 423631
2012 05 02.35764 15 49 58.00 -10 44 36.5 20.6 V 691 – Steward Observatory, Kitt Peak-Spacewatch MPS 423631
2012 05 02.37614 15 49 56.92 -10 44 34.7 20.5 V 691 – Steward Observatory, Kitt Peak-Spacewatch MPS 423631
2012 05 13.26439 15 39 01.47 -10 30 09.6 19.5 V 703 – Catalina Sky Survey MPS 424850
2012 05 13.27288 15 39 00.93 -10 30 10.2 19.5 V 703 – Catalina Sky Survey MPS 424850
2012 05 13.28159 15 39 00.28 -10 30 09.8 19.8 V 703 – Catalina Sky Survey MPS 424850
2012 05 13.29029 15 38 59.64 -10 30 09.1 19.5 V 703 – Catalina Sky Survey MPS 424850
2012 05 15.33177 15 36 46.11 -10 28 28.4 19.7 V G96 – Mt. Lemmon Survey MPS 424850
2012 05 15.33868 15 36 45.64 -10 28 28.0 19.5 V G96 – Mt. Lemmon Survey MPS 424850
2012 05 15.34561 15 36 45.18 -10 28 27.6 19.6 V G96 – Mt. Lemmon Survey MPS 424850
2012 05 15.35251 15 36 44.67 -10 28 27.1 19.3 V G96 – Mt. Lemmon Survey MPS 424850
2012 05 15.41015 15 36 40.75 -10 28 24.7 19.9 V G96 – Mt. Lemmon Survey MPS 424850
2012 05 15.41554 15 36 40.39 -10 28 24.6 19.9 V G96 – Mt. Lemmon Survey MPS 424850
2012 05 15.42090 15 36 40.03 -10 28 24.2 19.8 V G96 – Mt. Lemmon Survey MPS 424850
2012 05 15.42635 15 36 39.63 -10 28 23.9 19.7 V G96 – Mt. Lemmon Survey MPS 424850
2012 05 20.34020 15 31 13.87 -10 26 13.3 19.4 V 703 – Catalina Sky Survey MPS 425917
2012 05 20.34691 15 31 13.36 -10 26 13.3 19.7 V 703 – Catalina Sky Survey MPS 425917
2012 05 20.35361 15 31 13.00 -10 26 13.8 19.6 V 703 – Catalina Sky Survey MPS 425917
2012 05 20.35439 15 31 13.334 -10 26 10.81 20.0 g F51 – Pan-STARRS 1, Haleakala MPS 425917
2012 05 20.36038 15 31 12.46 -10 26 12.9 19.5 V 703 – Catalina Sky Survey MPS 425917
2012 05 20.36534 15 31 12.575 -10 26 10.78 20.2 g F51 – Pan-STARRS 1, Haleakala MPS 425917
2012 06 14.22024 15 08 07.87 -11 04 54.6 19.9 V G96 – Mt. Lemmon Survey MPS 427238
2012 06 14.22548 15 08 07.65 -11 04 55.9 19.8 V G96 – Mt. Lemmon Survey MPS 427238
2012 06 14.23076 15 08 07.44 -11 04 56.7 19.8 V G96 – Mt. Lemmon Survey MPS 427238
2012 06 14.23597 15 08 07.22 -11 04 58.2 19.7 V G96 – Mt. Lemmon Survey MPS 427238
2013 12 14.21066 05 21 30.61 +20 37 14.6 19.3 V G96 – Mt. Lemmon Survey MPS 493254
2013 12 14.21701 05 21 30.15 +20 37 15.6 19.5 V G96 – Mt. Lemmon Survey MPS 493254
2013 12 14.22340 05 21 29.65 +20 37 16.4 19.5 V G96 – Mt. Lemmon Survey MPS 493254
2013 12 14.22978 05 21 29.17 +20 37 17.1 19.8 V G96 – Mt. Lemmon Survey MPS 493254
